OPS 4682 DEB, 51495

Orbit data source: Space-Track

OPS 4682 DEB, 51495 is space debris in LEO originally from a launch on Sat, 03 Apr 1965 UTC launched from the Air Force Western Test Range (AFWTR). Debris objects in space refer to the collection of defunct objects orbiting the Earth. Examples of debris include non-operational satellites, rocket bodies, and fragments generated from explosions, collisions, or faulty payload assembly.

Loading next visibility...
Identifier
51495, 1965-027GF
Orbit
LEO
Country
Flag of USUS
Related business
Manufacturer
Unknown
Mission
Spacecraft
Bus & Motor
Unknown
Mass
Unknown
Launch date (UTC)
1965-04-03 (61 years ago)
Launch vehicle
Unknown
Launch site
Air Force Western Test Range (AFWTR)
Object type
Payload
Rocket body
Debris
Shape & HBR
Unknown
Radar Cross Section
Medium (>0.1 m² and <1 m²)

Expand to show TLE details & history
Last TLE update: 2 days ago

TLE from 2 days ago
0 OPS 4682 DEB
1 51495U 65027GF  26207.16324166 -.00000194  00000-0 -69958-3 0  9996
2 51495  90.2411   7.7868 0034395 354.7662   5.3094 12.96758916406034
Epoch: 2026-07-26T03:55Z
TLE epoch observation values (Epoch: 2026-07-26T03:55:04.079Z)
Latitude
-0.00001°
Longitude
5.15469°
Altitude
1,251.477 km
Speed
7.242 km/s
True Right ascension
00h 31m 08s
True Declination
0° 00' 00"
Sunlit
Object was in daylight at epoch
Visualization orbit readout
Latitude
Unknown
Longitude
Unknown
Altitude
Unknown
Speed
Unknown
Apparent Right ascension
Unknown
Apparent Declination
Unknown
Sunlit
N/A
Visualization observer readout
Local Sidereal Time
10:13:56
Azimuth
Unknown
Elevation
Unknown
Doppler factor
Unknown
Orbital elements
Apogee altitude
1,298.256 km
Perigee altitude
1,245.631 km
Semi-major axis
7,650.081 km
Eccentricity
0.00344
Inclination
90.2411°
RAAN
7.7868°
Arg. of periapsis
354.7662°
True anomaly
5.34603°
Mean anomaly
5.3094°
Eccentric anomaly
5.3277°
Mean motion
3.24373 °/min
Orbital period
110.98 mins
BSTAR
-0.00069958
Loading maneuver chart data...
Computing Atmospheric mass density...
Loading historical data...
Loading historical data...
Loading historical data...
Loading historical data...
Loading historical data...
Loading historical data...
Loading historical data...

Documentation

Showing up to 5 results
|